TimeEDT,TemperatureF,Dew PointF,Humidity,Sea Level PressureIn,VisibilityMPH,Wind Direction,Wind SpeedMPH,Gust SpeedMPH,PrecipitationIn,Events,Conditions,WindDirDegrees,DateUTC
12:56 AM,48.9,23.0,36,30.13,10.0,NNW,12.7,-,N/A,,Clear,330,2013-03-14 04:56:00
1:56 AM,46.9,23.0,39,30.14,10.0,North,9.2,-,N/A,,Clear,350,2013-03-14 05:56:00
2:56 AM,45.0,19.9,37,30.17,10.0,North,11.5,-,N/A,,Clear,350,2013-03-14 06:56:00
3:56 AM,39.9,21.0,47,30.19,10.0,NNW,8.1,-,N/A,,Clear,330,2013-03-14 07:56:00
4:56 AM,37.0,23.0,57,30.19,10.0,NNW,8.1,-,N/A,,Clear,340,2013-03-14 08:56:00
5:56 AM,39.0,21.9,50,30.21,10.0,North,6.9,-,N/A,,Clear,360,2013-03-14 09:56:00
6:56 AM,39.9,21.0,47,30.24,10.0,North,10.4,-,N/A,,Clear,10,2013-03-14 10:56:00
7:56 AM,37.9,21.0,51,30.28,10.0,North,8.1,-,N/A,,Clear,10,2013-03-14 11:56:00
8:56 AM,41.0,19.0,41,30.31,10.0,NNE,11.5,19.6,N/A,,Clear,20,2013-03-14 12:56:00
9:56 AM,44.1,17.1,34,30.32,10.0,North,16.1,-,N/A,,Clear,360,2013-03-14 13:56:00
10:56 AM,48.0,18.0,30,30.32,10.0,North,10.4,18.4,N/A,,Clear,360,2013-03-14 14:56:00
11:56 AM,48.0,18.0,30,30.30,10.0,NNW,13.8,19.6,N/A,,Clear,340,2013-03-14 15:56:00
12:56 PM,51.1,19.0,28,30.28,10.0,NW,13.8,21.9,N/A,,Clear,320,2013-03-14 16:56:00
1:56 PM,54.0,19.0,25,30.27,10.0,WNW,13.8,23.0,N/A,,Clear,300,2013-03-14 17:56:00
2:56 PM,57.0,19.0,23,30.25,10.0,NNW,11.5,-,N/A,,Clear,330,2013-03-14 18:56:00
3:56 PM,55.0,18.0,23,30.21,10.0,Variable,6.9,-,N/A,,Clear,0,2013-03-14 19:56:00
4:56 PM,57.0,17.1,21,30.20,10.0,North,11.5,20.7,N/A,,Clear,350,2013-03-14 20:56:00
5:56 PM,57.0,18.0,22,30.19,10.0,NW,8.1,-,N/A,,Partly Cloudy,320,2013-03-14 21:56:00
6:56 PM,54.0,18.0,24,30.20,10.0,WNW,8.1,-,N/A,,Partly Cloudy,300,2013-03-14 22:56:00
7:56 PM,52.0,19.0,27,30.21,10.0,West,4.6,-,N/A,,Clear,280,2013-03-14 23:56:00
8:56 PM,48.9,23.0,36,30.21,10.0,WSW,3.5,-,N/A,,Clear,250,2013-03-15 00:56:00
9:56 PM,46.0,24.1,42,30.21,10.0,Calm,Calm,-,N/A,,Clear,0,2013-03-15 01:56:00
10:56 PM,42.1,26.1,53,30.21,10.0,Calm,Calm,-,N/A,,Clear,0,2013-03-15 02:56:00
11:56 PM,41.0,28.0,60,30.23,10.0,Calm,Calm,-,N/A,,Clear,0,2013-03-15 03:56:00